[[{"header":{"parameterUnit":"m.s-1","parameterCategory":1,"la1":30.2991,"la2":30.254,"lo1":-89.0895,"lo2":-89.0444,"dy":0.0017,"dx":0.0017,"nx":28,"ny":28,"refTime":"2025-11-08T03:00:00:Z","depth":0,"parameterNumber":2,"parameterNumberName":"U-component_of_WINDS"},"data":[0,0,0,0,0,0,0,0,0,0,0,0,0,0,0,0,0,0,0,0,0,0,0,0,0,0,0,0,0,0,0,0,0,0,0,0,0,0,0,0,0,0,0,0,0,0,0,0,0,0,0,0,0,0,0,0,0,0,-1.2365,-1.2363,0,-1.2232,-1.2231,-1.2229,-1.2153,-1.2152,-1.2152,-1.2152,-1.2011,-1.2007,-1.2004,0,0,0,0,0,0,0,0,0,0,0,0,0,-1.2544,-1.2541,-1.2365,-1.2363,-1.2361,-1.2233,-1.2231,-1.2229,-1.2153,-1.2152,-1.2152,-1.2152,-1.2012,-1.2008,-1.2004,0,0,0,0,0,0,0,0,0,0,0,0,0,-1.2445,-1.2541,-1.2365,-1.2308,-1.2301,-1.2233,-1.2231,-1.2228,-1.2153,-1.2152,-1.2152,-1.2151,-1.2013,-1.2008,-1.2003,-1.198,0,0,-1.1987,-1.1985,0,0,0,0,0,0,0,0,-1.245,-1.2438,-1.2318,-1.2312,-1.2304,-1.2209,-1.2242,-1.2145,-1.2153,-1.2209,-1.2152,-1.2151,-1.2077,-1.2066,-1.2042,-1.1973,-1.1967,-1.1987,-1.1984,-1.1981,-1.198,0,0,0,0,0,0,0,-1.2457,-1.2443,-1.2312,-1.2316,-1.2308,-1.2287,-1.2272,-1.2224,-1.2147,-1.2204,-1.2198,-1.2184,-1.2073,-1.2047,-1.2038,-1.1965,-1.1987,-1.1982,-1.1979,-1.1977,-1.1866,-1.1866,0,0,0,0,0,0,-1.2474,-1.245,-1.2316,-1.2308,-1.2378,-1.2284,-1.2267,-1.224,-1.2147,-1.2133,-1.2184,-1.2181,-1.2057,-1.2044,-1.2033,-1.1997,-1.1981,-1.1976,-1.1973,-1.1866,-1.1866,-1.1866,0,0,0,0,0,0,-1.2478,-1.2463,-1.2322,-1.2377,-1.2358,-1.2281,-1.2251,-1.2237,-1.2212,-1.2132,-1.2118,-1.2173,-1.2056,-1.204,-1.1993,-1.1991,-1.1974,-1.1969,-1.1866,-1.1866,-1.1866,-1.1927,0,0,0,0,0,0,-1.2484,-1.2465,-1.2457,-1.2378,-1.2355,-1.2286,-1.2251,-1.2235,-1.2204,-1.2198,-1.2118,-1.2104,-1.2054,-1.2001,-1.1988,-1.1984,-1.1965,-1.1866,-1.1866,-1.1866,-1.1925,-1.193,-1.1934,0,0,0,0,0,-1.2491,-1.2479,-1.2457,-1.2442,-1.2344,-1.2287,-1.2273,-1.2218,-1.2204,-1.2194,-1.2142,-1.2106,-1.1994,-1.1997,-1.1981,-1.1976,-1.1865,-1.1866,-1.1866,-1.1923,-1.1929,-1.1934,0,0,0,0,0,0,-1.2559,-1.2468,-1.2442,-1.2405,-1.2354,-1.2274,-1.226,-1.2226,-1.2177,-1.2173,-1.2104,-1.2087,-1.2046,-1.2006,-1.2011,-1.1946,-1.1925,-1.1923,-1.1974,-1.1979,-1.1983,-1.1993,-1.1961,0,0,0,0,0,-1.257,-1.2533,-1.2454,-1.2429,-1.2405,-1.2337,-1.231,-1.2272,-1.2215,-1.2193,-1.2138,-1.2083,-1.2035,-1.2005,-1.1956,-1.1919,-1.1899,-1.1907,-1.1912,-1.1915,-1.1913,-1.1888,-1.189,-1.1868,-1.1868,-1.1868,0,0,-1.2592,-1.2537,-1.2518,-1.2441,-1.2397,-1.2358,-1.2319,-1.228,-1.225,-1.2186,-1.2138,-1.2096,-1.203,-1.1987,-1.1965,-1.1953,-1.1915,-1.1916,-1.192,-1.1915,-1.1889,-1.1891,-1.1893,-1.1868,-1.1868,-1.1868,0,0,-1.2611,-1.2568,-1.254,-1.2497,-1.2432,-1.2386,-1.238,-1.2304,-1.2273,-1.2225,-1.2176,-1.2137,-1.2057,-1.2011,-1.1977,-1.1978,-1.1942,-1.1964,-1.1985,-1.1962,-1.1963,-1.1964,-1.1963,-1.1963,-1.1962,-1.1962,-1.1962,0,-1.2646,-1.2588,-1.253,-1.2494,-1.246,-1.2402,-1.2373,-1.2333,-1.2254,-1.2231,-1.2219,-1.2115,-1.2067,-1.2011,-1.2011,-1.1987,-1.1975,-1.1972,-1.1968,-1.1969,-1.1969,-1.1966,-1.1966,-1.1965,-1.1965,-1.1965,-1.1964,0,-1.2632,-1.2592,-1.2578,-1.2505,-1.2469,-1.2437,-1.2372,-1.2343,-1.2307,-1.2263,-1.2212,-1.2152,-1.2089,-1.2073,-1.2038,-1.2012,-1.2006,-1.1982,-1.1959,-1.1975,-1.1971,-1.197,-1.197,-1.1969,-1.1968,-1.1967,0,0,-1.2692,-1.2587,-1.2582,-1.2547,-1.247,-1.2436,-1.2399,-1.234,-1.2315,-1.2262,-1.2228,-1.216,-1.2137,-1.2099,-1.2057,-1.2037,-1.2038,-1.2014,-1.2011,-1.2019,-1.2003,-1.2021,-1.2021,-1.2014,-1.2014,-1.2013,-1.2008,0,-1.2699,-1.2632,-1.2579,-1.2531,-1.2491,-1.2435,-1.2402,-1.235,-1.2307,-1.2265,-1.2216,-1.2169,-1.2143,-1.2119,-1.2096,-1.2043,-1.2033,-1.2043,-1.1979,-1.1977,-1.1996,-1.2019,-1.2038,-1.2036,-1.2006,-1.2006,-1.2006,0,-1.2698,-1.2649,-1.2597,-1.2522,-1.2503,-1.2476,-1.2415,-1.2377,-1.2315,-1.2285,-1.2242,-1.2198,-1.2154,-1.2137,-1.2073,-1.2081,-1.2051,-1.2021,-1.2019,-1.201,-1.1992,-1.2009,-1.2034,-1.2033,-1.2003,-1.2003,-1.2003,0,-1.2745,-1.2665,-1.2623,-1.2595,-1.2507,-1.2488,-1.245,-1.2388,-1.2355,-1.2301,-1.2278,-1.222,-1.2188,-1.2142,-1.2083,-1.2076,-1.2025,-1.2003,-1.1997,-1.1998,-1.1988,-1.1989,-1.2007,-1.1971,-1.1971,-1.1971,-1.1971,0,-1.2757,-1.2728,-1.2642,-1.2617,-1.2581,-1.2519,-1.2484,-1.2441,-1.2386,-1.2349,-1.2296,-1.2262,-1.2187,-1.2143,-1.2096,-1.205,-1.2036,-1.2008,-1.1996,-1.2012,-1.2015,-1.1991,-1.1989,-1.1971,-1.1971,-1.1971,-1.1971,0,-1.2803,-1.2745,-1.2695,-1.2616,-1.2595,-1.2572,-1.2502,-1.2473,-1.2427,-1.2381,-1.2366,-1.2292,-1.2238,-1.2175,-1.2099,-1.2068,-1.2024,-1.2007,-1.2045,-1.2038,-1.2034,-1.2035,-1.2036,-1.2032,-1.2002,-1.2002,-1.2002,0,-1.2814,-1.279,-1.2708,-1.268,-1.2644,-1.2599,-1.2565,-1.2502,-1.2468,-1.2395,-1.2375,-1.2317,-1.2267,-1.2181,-1.212,-1.2061,-1.2041,-1.2045,-1.2031,-1.2048,-1.2038,-1.204,-1.2036,-1.2049,-1.2049,-1.205,-1.205,0,-1.284,-1.2812,-1.2766,-1.2709,-1.267,-1.2622,-1.2571,-1.2551,-1.2477,-1.2441,-1.2385,-1.2347,-1.2269,-1.2211,-1.2144,-1.2102,-1.2063,-1.2055,-1.205,-1.2066,-1.2089,-1.2074,-1.2054,-1.2055,-1.2055,-1.2054,-1.2054,-1.2054,-1.2867,-1.2842,-1.278,-1.2729,-1.2685,-1.2638,-1.2607,-1.2557,-1.251,-1.2443,-1.2408,-1.2353,-1.2288,-1.2195,-1.2154,-1.2108,-1.2095,-1.2088,-1.2086,-1.2085,-1.2089,-1.2098,-1.2096,-1.2095,-1.2095,-1.2095,-1.2095,0,-1.2888,-1.2845,-1.28,-1.2731,-1.269,-1.2659,-1.2601,-1.2568,-1.252,-1.2465,-1.2417,-1.2352,-1.2294,-1.2228,-1.2166,-1.2141,-1.2122,-1.2127,-1.2127,-1.2118,-1.2105,-1.2115,-1.2144,-1.2144,-1.2144,-1.2144,-1.2144,-1.2144,-1.2894,-1.285,-1.2815,-1.2747,-1.2703,-1.2649,-1.2618,-1.2574,-1.253,-1.246,-1.2412,-1.237,-1.2309,-1.2242,-1.2187,-1.2169,-1.2148,-1.2158,-1.2134,-1.2123,-1.2119,-1.2115,-1.2124,-1.2154,-1.2154,-1.215,-1.215,-1.215]},{"header":{"parameterUnit":"m.s-1","parameterCategory":1,"la1":30.2991,"la2":30.254,"lo1":-89.0895,"lo2":-89.0444,"dy":0.0017,"dx":0.0017,"nx":28,"ny":28,"refTime":"2025-11-08T03:00:00:Z","depth":0,"parameterNumber":3,"parameterNumberName":"V-component_of_WINDS"},"data":[0,0,0,0,0,0,0,0,0,0,0,0,0,0,0,0,0,0,0,0,0,0,0,0,0,0,0,0,0,0,0,0,0,0,0,0,0,0,0,0,0,0,0,0,0,0,0,0,0,0,0,0,0,0,0,0,0,0,4.0064,4.0065,0,4.0154,4.0155,4.0156,4.023,4.0231,4.0232,4.0232,4.0321,4.0322,4.0324,0,0,0,0,0,0,0,0,0,0,0,0,0,3.9954,3.9956,4.0064,4.0065,4.0066,4.0154,4.0156,4.0157,4.023,4.0231,4.0232,4.0233,4.032,4.0322,4.0324,0,0,0,0,0,0,0,0,0,0,0,0,0,4.0019,3.9956,4.0063,4.0113,4.0119,4.0154,4.0156,4.0157,4.023,4.0231,4.0232,4.0233,4.0319,4.0322,4.0324,4.0316,0,0,4.0332,4.0333,0,0,0,0,0,0,0,0,4.0015,4.0023,4.0105,4.011,4.0116,4.0182,4.0149,4.021,4.023,4.0187,4.0232,4.0234,4.0273,4.028,4.0294,4.032,4.0324,4.0332,4.0333,4.0334,4.0335,0,0,0,0,0,0,0,4.001,4.0019,4.0099,4.0106,4.0113,4.0131,4.0142,4.0161,4.0223,4.0191,4.0197,4.0207,4.0277,4.0291,4.0296,4.0325,4.0332,4.0334,4.0335,4.0336,4.0356,4.0355,0,0,0,0,0,0,3.9999,4.0015,4.0097,4.0102,4.0068,4.0132,4.0144,4.016,4.0223,4.0233,4.0206,4.021,4.0287,4.0294,4.03,4.0299,4.0334,4.0337,4.0338,4.0357,4.0355,4.0354,0,0,0,0,0,0,3.9996,4.0005,4.0093,4.006,4.0073,4.0133,4.015,4.0161,4.0176,4.0234,4.0245,4.021,4.0288,4.0296,4.0313,4.0303,4.0338,4.034,4.0358,4.0356,4.0355,4.0293,0,0,0,0,0,0,3.9992,4.0004,4.0001,4.006,4.0074,4.0104,4.0149,4.0162,4.018,4.0187,4.024,4.025,4.0289,4.0309,4.0316,4.0307,4.0342,4.0359,4.0357,4.0355,4.0296,4.029,4.0284,0,0,0,0,0,3.9988,3.9977,4.0,4.0009,4.0072,4.0104,4.0112,4.0159,4.0179,4.0177,4.0216,4.0248,4.0303,4.031,4.0318,4.0309,4.036,4.0358,4.0356,4.0299,4.0291,4.0284,0,0,0,0,0,0,3.9912,3.9986,4.0012,4.002,4.0055,4.0116,4.0115,4.0148,4.0177,4.0181,4.0237,4.0248,4.026,4.0286,4.0293,4.0308,4.0336,4.0335,4.029,4.0283,4.0277,4.0271,4.0344,0,0,0,0,0,3.9897,3.9917,3.998,3.9981,3.9998,4.0053,4.0068,4.0102,4.014,4.0155,4.0194,4.0229,4.0256,4.027,4.0297,4.0301,4.0316,4.0299,4.0293,4.0288,4.0287,4.0296,4.0291,4.0347,4.0347,4.0348,0,0,3.9864,3.9907,3.9915,3.9967,3.9998,4.0019,4.0065,4.0083,4.0099,4.0157,4.0177,4.0207,4.0251,4.0263,4.027,4.0285,4.0275,4.0285,4.028,4.0282,4.0293,4.0288,4.0283,4.0346,4.0346,4.0347,0,0,3.9816,3.9849,3.9856,3.9888,3.9937,3.9975,3.9977,4.0034,4.0057,4.0079,4.0125,4.0145,4.0186,4.0217,4.0238,4.0208,4.0241,4.0215,4.0183,4.0191,4.0187,4.0183,4.0176,4.0172,4.0214,4.0213,4.0213,0,3.9768,3.9802,3.9855,3.9873,3.9895,3.9953,3.9962,3.9989,4.0043,4.0058,4.0075,4.0133,4.0165,4.0188,4.0182,4.0195,4.0201,4.0209,4.0183,4.018,4.0177,4.0171,4.0168,4.021,4.0211,4.0211,4.0211,0,3.9744,3.9766,3.9766,3.9821,3.9843,3.9856,3.9912,3.9929,3.9962,3.9999,4.0022,4.0064,4.0103,4.0111,4.0141,4.0139,4.0147,4.0173,4.0202,4.0168,4.0163,4.0161,4.0206,4.0207,4.0208,4.0209,0,0,3.9646,3.9735,3.9734,3.9762,3.9823,3.9841,3.9858,3.9899,3.9914,3.995,3.9967,4.0004,4.0031,4.0054,4.009,4.0097,4.0076,4.0122,4.0124,4.0114,4.008,4.0062,4.0058,4.0098,4.0098,4.0097,4.0078,0,3.9609,3.9644,3.9696,3.9714,3.9738,3.9796,3.9811,3.9851,3.9887,3.9912,3.9952,3.9979,4.0009,4.0025,4.0035,4.0076,4.007,4.0078,4.0116,4.0116,4.0104,4.0055,4.0034,4.0013,4.0076,4.0075,4.0075,0,3.957,3.9608,3.9629,3.9694,3.9706,3.9718,3.9763,3.9786,3.9834,3.986,3.989,3.993,3.9952,3.9979,4.0013,4.0017,4.0036,4.0059,4.006,4.0066,4.0094,4.0061,4.0007,4.0004,4.0072,4.0072,4.0072,0,3.9501,3.9556,3.9578,3.96,3.9674,3.9683,3.9714,3.9763,3.9786,3.9825,3.9841,3.988,3.9902,3.9932,3.9983,3.9997,4.0012,4.0042,4.0036,4.0035,4.0036,4.0035,3.9986,4.0046,4.0046,4.0046,4.0046,0,3.9455,3.9467,3.9549,3.9562,3.9579,3.9638,3.9653,3.9689,3.9733,3.9756,3.9807,3.9827,3.9892,3.992,3.9959,3.9984,3.9992,4.0015,4.0025,4.0011,4.0008,4.0024,4.0028,4.0045,4.0045,4.0045,4.0045,0,3.938,3.9435,3.9464,3.9534,3.9552,3.9561,3.9622,3.9638,3.9679,3.9707,3.9717,3.9781,3.9818,3.9871,3.9922,3.9949,3.9968,3.9984,3.9953,3.9959,3.9951,3.9952,3.9911,3.991,3.9968,3.9968,3.9967,0,3.9347,3.9359,3.9432,3.9452,3.9483,3.9514,3.9539,3.9599,3.9624,3.9682,3.9692,3.9733,3.9769,3.9824,3.9875,3.9916,3.9935,3.9918,3.9941,3.9928,3.9938,3.9937,3.994,3.9912,3.9911,3.991,3.991,0,3.9285,3.9314,3.9349,3.9396,3.9425,3.9464,3.9505,3.9518,3.9588,3.9613,3.9652,3.968,3.9736,3.9777,3.9826,3.9859,3.9897,3.9903,3.9904,3.989,3.9872,3.9885,3.994,3.9903,3.9904,3.9904,3.9904,3.9905,3.9233,3.9247,3.9303,3.9342,3.9381,3.9419,3.944,3.9485,3.952,3.9571,3.9605,3.9644,3.9696,3.9766,3.9797,3.9829,3.9845,3.9845,3.9846,3.9846,3.9842,3.9867,3.9838,3.9838,3.9838,3.9838,3.9839,0,3.9176,3.9216,3.9251,3.931,3.9341,3.9377,3.9426,3.945,3.9484,3.953,3.9566,3.9614,3.9656,3.9712,3.9758,3.9773,3.9792,3.9783,3.9783,3.9791,3.9824,3.982,3.9767,3.9767,3.9767,3.9767,3.9767,3.9767,3.915,3.9179,3.9214,3.9264,3.9304,3.9344,3.9369,3.9406,3.9444,3.9496,3.9532,3.957,3.9621,3.9672,3.9713,3.9729,3.9744,3.973,3.9751,3.9781,3.9788,3.9794,3.979,3.9733,3.9733,3.9716,3.9716,3.9716]}]]